Location: Pasadena-CA
(34.1440°N, 118.1100°W)
Time: 12:23:36
(UTC-07:00)

Oscar 19 - Pass Details

Date: 30 June 2022
Orbit: 773 x 790 km, 98.8° (Epoch: 17 August)

Event Time Altitude Azimuth Distance (km) Brightness Sun altitude
Rises 04:02:09 0° 18° (NNE) 3,254 15.0 -17.6°
Reaches altitude 10° 04:04:30 10° 22° (NNE) 2,323 14.1 -17.3°
Maximum altitude 04:09:32 58° 101° (E) 902 11.1 -16.6°
Enters shadow 04:14:06 12° 179° (S) 2,141 12.5 -15.9°
